This is the latest recevied weather packets stored in our database for station/object DO1MIT-10. If no packets are shown the sender has not sent any weather packets the latest 10 day(s).
| Time | Temp. | Humidity | Pressure | Rain* | Wind** | Luminosity | Snow |
|---|---|---|---|---|---|---|---|
| 1777853998 | 13.33° C | 63% | 1015.7 hPa | - | - | - | - |
| 1777853098 | 13.89° C | 62% | 1015.7 hPa | - | - | - | - |
| 1777852198 | 13.89° C | 62% | 1015.8 hPa | - | - | - | - |
| 1777851298 | 13.33° C | 61% | 1015.7 hPa | - | - | - | - |
| 1777850398 | 13.33° C | 61% | 1015.7 hPa | - | - | - | - |
| 1777849498 | 13.89° C | 59% | 1015.6 hPa | - | - | - | - |
| 1777848597 | 13.89° C | 59% | 1015.6 hPa | - | - | - | - |
| 1777847697 | 13.89° C | 58% | 1015.3 hPa | - | - | - | - |
| 1777846796 | 14.44° C | 57% | 1015.1 hPa | - | - | - | - |
| 1777845896 | 14.44° C | 56% | 1015 hPa | - | - | - | - |
| 1777844995 | 14.44° C | 55% | 1015 hPa | - | - | - | - |
| 1777844095 | 14.44° C | 54% | 1014.8 hPa | - | - | - | - |
| 1777843195 | 15° C | 53% | 1014.7 hPa | - | - | - | - |
| 1777842295 | 15.56° C | 52% | 1014.6 hPa | - | - | - | - |
| 1777841395 | 16.11° C | 51% | 1014.5 hPa | - | - | - | - |
| 1777840495 | 16.67° C | 50% | 1014.4 hPa | - | - | - | - |
| 1777839595 | 17.22° C | 49% | 1014.4 hPa | - | - | - | - |
| 1777838695 | 18.33° C | 48% | 1014.4 hPa | - | - | - | - |
| 1777837795 | 18.33° C | 47% | 1014.4 hPa | - | - | - | - |
| 1777836895 | 18.89° C | 46% | 1014.2 hPa | - | - | - | - |
| 1777835995 | 18.89° C | 45% | 1014.2 hPa | - | - | - | - |
| 1777835094 | 18.89° C | 44% | 1014.1 hPa | - | - | - | - |
| 1777834194 | 18.33° C | 44% | 1013.9 hPa | - | - | - | - |
| 1777833294 | 18.33° C | 44% | 1013.6 hPa | - | - | - | - |
| 1777832394 | 18.89° C | 42% | 1013.5 hPa | - | - | - | - |
* Rain since midnight (hover to see other rain measurements)
** Current wind speed in m/s (hover to see current wind gust speed)